Wind_Speed
10 9 7 3 1 1 1 3 6 7 9 11 15 16 16 15 17 23 15 10 9 11 15 19 19 20 21 21 21 23 24 24 27 26 23 17 24 27 20 18 18 20 20
11 7 5 5 5 1 1 3 7 9 11 13 16 16 16 17 13 16 19 13 12 11 11 12 18 21 17 16 19 19 21 20 22 25 25 30 31 29 18 20 22 19 21
9 9 7 5 2 1 3 5 7 10 12 14 15 17 19 18 16 13 13 15 16 16 17 17 18 15 18 20 22 23 20 20 20 21 23 24 28 24 25 20 19 21 20
11 10 8 5 3 3 6 8 9 11 12 14 15 18 19 20 16 12 19 24 16 14 17 18 16 17 18 17 17 19 18 18 18 19 19 20 20 21 24 26 23 21 21
11 10 7 6 6 7 9 12 12 13 11 14 15 17 19 18 14 21 22 19 17 17 17 16 16 18 21 18 19 16 16 17 18 21 20 21 22 22 21 19 22 21 25
11 9 8 7 9 11 12 13 13 16 12 14 16 18 19 18 23 23 22 21 18 16 18 18 19 19 20 21 21 19 19 20 22 20 22 24 22 18 17 22 21 20 19
10 9 9 9 12 13 14 13 14 14 14 16 17 19 20 20 23 26 25 23 20 19 18 19 18 17 20 18 18 20 22 20 21 22 25 26 23 18 15 13 16 20 20
8 8 9 10 12 13 11 12 14 15 18 18 20 21 21 22 25 29 30 24 19 20 20 21 19 19 19 19 19 18 18 19 20 20 21 23 23 22 20 17 15 13 17
6 7 10 11 11 11 14 15 16 18 18 20 21 22 24 25 23 26 27 24 21 22 21 21 21 20 22 21 20 18 18 17 17 21 21 22 23 22 21 22 21 19 20
4 7 11 12 11 12 14 15 17 17 19 19 20 20 19 20 18 22 24 20 23 22 21 20 19 22 24 25 19 21 18 18 18 19 18 17 16 18 19 20 19 18 23
0 3 7 10 13 10 15 18 19 19 19 17 18 17 17 14 13 20 24 22 20 22 20 20 17 24 21 23 24 26 26 22 21 19 17 15 17 15 15 15 16 18 18
4 7 11 15 13 12 15 14 14 14 16 16 16 15 12 12 15 21 20 21 20 24 22 21 23 28 31 31 30 30 30 27 24 19 19 18 19 17 17 21 19 19 18
10 13 12 13 14 11 12 12 12 12 13 13 14 14 14 15 16 25 26 26 27 29 25 25 27 30 31 28 23 21 23 25 21 23 23 25 24 21 18 22 22 21 21
9 10 9 9 12 10 9 9 10 10 12 13 13 15 17 17 18 26 32 33 32 29 28 29 28 24 21 21 23 22 22 21 21 25 26 25 25 21 21 23 21 22 20
8 7 7 6 9 9 8 9 7 9 19 15 13 15 17 20 24 30 31 32 33 31 32 31 23 19 22 23 24 21 19 21 21 18 24 25 26 23 18 18 18 18 19
5 5 7 5 7 8 8 9 14 16 21 23 25 26 20 21 32 32 28 25 22 22 23 18 19 21 23 20 20 21 19 18 21 22 19 21 22 22 25 27 29 30 27
6 5 4 7 7 8 9 10 10 14 17 19 23 26 27 33 33 23 25 22 22 25 17 19 20 20 21 20 20 17 20 21 18 23 24 20 18 19 20 23 24 26 26
3 10 5 6 7 8 9 10 9 11 12 13 14 19 26 29 30 29 29 22 21 20 19 23 25 28 28 26 23 21 19 18 21 20 18 19 20 22 25 24 24 26 29
5 3 4 6 8 9 8 8 8 9 10 11 12 16 27 27 27 27 27 24 24 26 27 27 27 28 28 28 31 29 28 25 24 25 25 23 21 22 23 24 29 31 29
7 9 7 5 7 7 7 7 8 9 11 13 16 16 22 25 25 27 34 33 33 30 29 28 29 29 29 28 28 28 31 31 30 28 29 27 27 25 25 26 29 31 27
2 5 8 5 6 7 8 8 10 11 14 16 17 20 25 21 22 23 24 38 37 34 31 29 27 28 28 28 26 26 26 27 28 30 31 30 33 32 30 29 27 24 27
1 3 5 6 7 9 10 8 12 13 15 17 18 19 23 21 24 24 23 25 32 39 34 33 30 27 27 26 25 25 25 25 26 27 27 31 31 29 29 30 27 26 25
3 5 6 8 10 12 11 11 13 13 16 17 18 20 21 22 24 24 24 23 30 30 38 33 32 31 27 26 24 23 24 23 23 24 27 29 31 29 29 30 29 26 25
3 7 8 10 10 12 11 13 13 15 16 17 19 21 22 23 25 25 25 24 23 32 30 40 33 33 31 28 26 24 23 24 26 27 27 30 33 33 34 34 31 30 31
6 8 9 10 10 11 12 13 14 15 17 19 21 22 23 25 26 26 26 25 24 35 31 28 39 34 35 33 30 27 25 24 25 26 27 29 32 33 36 35 35 34 32
7 9 10 10 11 12 13 14 15 17 19 21 22 23 25 27 27 27 28 26 27 37 34 32 32 36 34 37 37 34 29 28 29 31 31 31 32 34 35 37 38 36 34
Wind_Direction
166 170 183 168 197 95 349 22 11 355 357 356 356 354 352 355 348 345 327 325 317 286 281 277 273 268 260 260 266 268 261 254 256 264 257 279 250 246 233 240 254 259 252
171 165 166 150 151 124 123 350 359 359 358 353 347 347 345 342 351 348 340 319 304 301 300 293 281 267 265 262 260 272 271 269 258 262 264 260 274 267 249 263 242 250 260
165 152 173 174 173 292 332 326 331 334 341 343 343 346 343 337 334 340 332 344 335 314 294 286 292 292 286 283 280 277 276 276 264 266 272 274 279 267 268 270 260 241 251
166 181 184 186 225 280 303 309 315 313 328 328 335 341 344 341 340 313 312 317 313 312 315 319 309 296 291 295 290 274 263 271 273 273 274 281 284 282 274 268 269 250 241
180 190 208 232 260 291 302 298 308 310 316 321 329 334 339 346 322 319 321 328 324 315 309 305 303 299 299 289 279 281 276 275 279 279 282 286 285 289 277 270 269 267 250
190 201 225 247 272 283 300 306 302 302 321 314 323 325 327 329 319 322 330 329 327 324 317 309 304 304 313 304 301 291 279 275 273 275 278 285 290 281 284 270 270 266 268
201 218 243 271 286 290 301 307 301 307 315 315 314 318 318 321 316 314 317 321 327 313 320 310 308 299 292 294 289 293 298 290 275 273 270 269 271 274 275 280 273 267 263
207 241 263 278 287 307 316 313 311 316 312 314 316 316 315 319 312 310 310 317 312 322 308 311 311 307 300 290 285 283 279 279 282 284 269 270 265 263 264 269 269 275 274
206 261 277 288 288 302 298 302 309 309 312 313 312 303 300 300 300 304 310 316 312 307 311 307 306 309 297 297 300 294 283 278 280 285 282 271 263 258 258 269 264 264 263
225 237 266 292 312 313 305 309 310 313 314 307 311 311 310 308 317 311 308 312 316 311 306 303 303 296 291 278 289 296 296 286 272 267 275 278 277 266 260 256 255 251 259
286 312 308 308 319 323 301 307 312 315 319 327 325 326 330 330 317 304 302 309 311 313 312 309 300 296 294 291 293 289 286 289 288 280 277 276 279 270 270 265 259 252 254
302 315 316 313 319 315 316 326 331 340 336 330 330 330 327 330 323 317 302 296 299 302 309 307 296 285 281 279 282 284 283 279 280 276 274 271 269 263 270 271 279 267 253
327 325 326 331 325 340 345 344 347 340 337 333 336 334 331 331 326 296 297 294 287 285 294 295 286 286 288 295 294 289 287 281 273 267 266 268 264 263 270 253 265 263 261
336 347 344 356 347 357 9 346 353 353 351 348 339 338 338 333 322 314 321 324 322 317 312 303 299 303 306 304 295 288 280 278 266 262 263 263 267 266 263 267 277 264 264
4 14 4 2 358 6 350 341 356 338 346 352 346 341 336 329 327 324 319 317 316 314 308 307 309 307 303 299 289 292 298 284 283 283 274 265 261 265 268 258 263 258 256
45 23 347 9 350 350 352 354 340 346 353 359 357 353 354 333 336 329 328 332 328 319 313 315 309 304 303 301 300 296 291 296 290 288 289 284 278 270 262 262 261 255 258
43 34 358 1 351 355 358 3 0 349 356 357 357 353 345 337 333 331 332 350 351 332 315 303 306 295 294 311 298 299 296 280 287 295 287 283 289 291 288 273 261 254 256
30 14 20 352 354 3 4 3 0 0 3 6 1 359 338 351 359 355 347 355 345 345 337 330 317 303 293 293 290 285 287 286 278 273 284 288 283 283 282 281 281 274 264
46 12 19 5 351 7 359 355 348 348 351 358 0 354 356 13 1 1 1 357 345 340 337 335 332 327 316 299 287 282 280 288 288 287 283 286 286 285 282 277 273 275 276
352 13 34 15 352 343 337 329 327 338 343 343 343 335 346 356 1 1 9 5 1 351 340 333 332 332 328 319 308 295 282 278 278 277 279 278 279 284 288 287 273 272 267
18 349 15 1 332 331 329 325 329 332 335 334 334 325 333 349 347 347 352 9 5 358 351 340 333 332 333 327 319 311 297 287 281 282 284 281 277 280 275 287 279 272 265
23 341 341 335 336 335 328 334 329 326 326 328 331 331 335 338 336 337 331 333 358 6 354 353 348 340 336 332 327 321 313 301 288 279 276 278 278 278 271 278 274 274 268
326 336 333 333 332 329 334 327 324 325 324 326 329 331 332 331 332 332 331 323 335 352 1 352 353 351 347 343 340 334 328 323 310 295 282 277 274 269 265 270 270 269 267
326 327 329 328 324 327 327 324 326 324 325 327 329 329 329 329 329 329 329 328 316 337 345 357 352 351 351 350 346 343 339 332 320 311 298 284 275 274 267 269 269 267 266
316 317 323 327 327 326 324 326 324 326 330 330 329 329 329 328 328 328 327 326 318 327 337 346 355 353 353 354 353 350 345 337 327 320 310 298 286 275 270 270 269 266 262
316 318 316 316 321 322 322 324 325 328 329 330 330 330 330 329 328 327 325 325 321 329 329 333 348 347 353 355 354 354 350 346 341 333 323 310 293 280 272 267 265 265 265
Height
1535 1536 1536 1536 1537 1536 1536 1535 1533 1531 1528 1526 1522 1519 1516 1512 1510 1506 1503 1501 1500 1498 1498 1498 1498 1498 1498 1499 1499 1498 1499 1500 1498 1498 1498 1497 1497 1495 1493 1497 1498 1500 1501
1535 1536 1537 1536 1536 1537 1536 1536 1534 1532 1529 1527 1523 1519 1516 1513 1510 1507 1504 1501 1499 1498 1496 1495 1495 1495 1494 1494 1494 1493 1490 1493 1495 1494 1493 1492 1489 1483 1480 1492 1492 1496 1497
1535 1536 1538 1538 1538 1538 1537 1535 1533 1531 1528 1526 1522 1518 1514 1512 1509 1507 1505 1501 1499 1497 1495 1493 1492 1491 1490 1490 1490 1490 1489 1490 1491 1490 1487 1487 1483 1485 1488 1485 1487 1486 1492
1535 1538 1538 1539 1539 1538 1536 1534 1532 1529 1527 1524 1521 1517 1514 1511 1508 1505 1502 1500 1498 1497 1495 1492 1490 1488 1487 1487 1486 1484 1486 1486 1487 1486 1485 1483 1482 1481 1480 1481 1483 1484 1482
1535 1537 1538 1538 1538 1536 1535 1532 1530 1528 1525 1523 1520 1517 1514 1512 1508 1505 1501 1499 1497 1494 1492 1491 1490 1488 1486 1485 1483 1482 1482 1482 1482 1481 1479 1478 1476 1477 1476 1477 1477 1478 1478
1534 1536 1537 1537 1537 1535 1532 1530 1528 1526 1523 1521 1519 1517 1514 1512 1507 1503 1500 1497 1494 1492 1490 1488 1486 1484 1482 1481 1480 1478 1476 1476 1476 1475 1474 1473 1470 1472 1472 1471 1471 1472 1471
1534 1536 1537 1536 1535 1533 1530 1528 1526 1523 1522 1519 1517 1514 1512 1509 1504 1501 1498 1495 1492 1490 1488 1485 1483 1482 1479 1478 1476 1474 1473 1471 1470 1470 1468 1466 1467 1468 1467 1466 1466 1466 1466
1533 1536 1537 1535 1531 1529 1527 1526 1523 1521 1518 1516 1513 1511 1509 1507 1502 1498 1496 1493 1489 1487 1485 1482 1480 1477 1475 1472 1471 1470 1469 1469 1467 1464 1463 1462 1462 1462 1462 1462 1462 1462 1461
1530 1534 1533 1531 1528 1527 1524 1521 1519 1517 1514 1513 1511 1507 1504 1501 1500 1495 1492 1490 1486 1483 1481 1479 1476 1473 1470 1468 1466 1464 1464 1463 1462 1460 1458 1457 1456 1456 1456 1456 1456 1458 1457
1526 1524 1527 1527 1525 1524 1521 1519 1516 1514 1511 1508 1505 1502 1500 1497 1495 1491 1488 1486 1482 1480 1477 1474 1472 1469 1466 1464 1463 1461 1459 1459 1456 1454 1454 1452 1452 1450 1450 1450 1451 1451 1451
1526 1524 1522 1523 1520 1520 1518 1514 1512 1509 1506 1504 1503 1501 1499 1497 1494 1488 1484 1481 1478 1476 1473 1471 1469 1464 1461 1460 1458 1457 1455 1454 1451 1450 1449 1449 1448 1447 1445 1444 1444 1445 1445
1524 1522 1519 1518 1516 1514 1513 1511 1509 1507 1506 1504 1502 1500 1498 1495 1490 1485 1480 1478 1475 1471 1468 1467 1462 1456 1453 1452 1451 1450 1449 1447 1446 1446 1444 1444 1444 1443 1442 1439 1438 1438 1439
1520 1518 1517 1516 1513 1512 1510 1512 1510 1508 1506 1504 1501 1497 1494 1491 1487 1480 1476 1472 1469 1464 1463 1460 1454 1450 1446 1445 1443 1443 1442 1441 1440 1440 1439 1438 1436 1434 1435 1435 1433 1434 1434
1518 1516 1516 1516 1514 1511 1512 1513 1510 1507 1506 1503 1500 1496 1491 1487 1482 1478 1473 1466 1461 1457 1454 1450 1446 1444 1442 1440 1439 1437 1437 1435 1434 1433 1432 1432 1431 1429 1428 1428 1429 1428 1428
1515 1515 1515 1518 1515 1513 1513 1511 1509 1506 1505 1502 1499 1494 1488 1486 1482 1476 1471 1463 1456 1452 1446 1442 1441 1440 1439 1436 1433 1433 1432 1429 1427 1427 1425 1423 1422 1422 1422 1422 1422 1423 1422
1516 1516 1515 1517 1516 1514 1512 1511 1506 1503 1502 1499 1496 1493 1489 1484 1480 1473 1467 1459 1452 1447 1442 1440 1439 1437 1434 1431 1429 1427 1425 1425 1423 1421 1420 1419 1417 1416 1415 1415 1415 1416 1416
1514 1515 1518 1516 1514 1513 1511 1508 1506 1503 1501 1499 1494 1489 1487 1482 1475 1468 1461 1454 1449 1445 1441 1437 1433 1430 1428 1426 1424 1423 1421 1419 1418 1417 1415 1414 1413 1412 1410 1408 1408 1408 1408
1515 1514 1516 1515 1513 1512 1509 1508 1508 1506 1504 1501 1496 1493 1488 1479 1471 1464 1457 1452 1448 1444 1441 1435 1430 1427 1424 1421 1419 1417 1415 1413 1412 1410 1409 1409 1407 1406 1404 1403 1402 1400 1401
1515 1514 1514 1513 1512 1510 1509 1509 1508 1507 1504 1500 1496 1492 1483 1476 1471 1464 1457 1452 1447 1442 1437 1433 1428 1424 1419 1415 1412 1410 1408 1406 1406 1405 1403 1401 1400 1398 1397 1396 1396 1395 1394
1514 1512 1511 1513 1513 1512 1510 1509 1508 1504 1501 1497 1493 1488 1482 1477 1471 1464 1458 1451 1446 1441 1435 1430 1425 1420 1415 1410 1405 1402 1399 1398 1397 1397 1396 1395 1393 1392 1390 1389 1388 1387 1385
1516 1515 1514 1514 1513 1512 1510 1507 1504 1501 1498 1494 1490 1485 1481 1476 1471 1466 1458 1452 1446 1440 1434 1427 1422 1416 1410 1404 1399 1395 1392 1390 1389 1388 1387 1386 1384 1383 1383 1381 1380 1378 1378
1516 1515 1514 1513 1511 1509 1506 1504 1502 1499 1496 1492 1488 1484 1478 1474 1470 1466 1460 1452 1447 1441 1433 1426 1418 1412 1406 1400 1395 1389 1385 1382 1380 1379 1378 1376 1375 1374 1373 1373 1372 1371 1370
1514 1513 1511 1510 1508 1506 1504 1502 1500 1497 1493 1490 1486 1482 1477 1473 1468 1464 1459 1453 1445 1438 1433 1425 1417 1410 1403 1397 1392 1386 1380 1376 1373 1370 1368 1366 1364 1363 1362 1363 1363 1363 1363
1512 1510 1509 1507 1505 1504 1502 1500 1497 1494 1491 1487 1484 1480 1475 1471 1467 1462 1457 1451 1444 1436 1429 1423 1415 1408 1401 1394 1388 1383 1377 1373 1368 1364 1360 1357 1355 1353 1353 1353 1353 1353 1354
1510 1508 1506 1505 1503 1502 1500 1497 1495 1492 1489 1485 1481 1478 1474 1469 1464 1459 1454 1448 1442 1434 1427 1419 1413 1405 1398 1391 1385 1378 1374 1369 1364 1358 1352 1347 1344 1343 1342 1341 1341 1342 1343
1507 1506 1504 1503 1501 1500 1498 1495 1493 1489 1486 1483 1479 1475 1471 1466 1460 1455 1450 1444 1438 1429 1421 1417 1412 1403 1396 1389 1382 1376 1370 1364 1357 1350 1344 1338 1332 1329 1328 1328 1329 1330 1330